Wind_Speed
26 26 26 27 28 30 31 32 33 34 35 34 31 30 27 27 26 24 22 21 22 24 26 27 28 29 29 29 28 27 25 23 22 21 20 19 20 20 21 20 20 21 21
18 19 21 23 24 24 26 27 26 25 24 21 19 19 19 18 18 19 19 20 22 24 25 26 27 27 28 28 27 27 26 24 22 21 20 19 20 20 20 21 20 21 20
10 11 13 13 13 13 13 12 12 12 11 9 9 10 12 13 15 17 19 21 23 24 25 26 27 27 27 27 27 27 27 25 23 21 21 20 19 20 20 21 21 21 21
6 5 3 2 1 1 2 2 3 4 5 6 8 11 13 14 16 18 20 21 22 23 24 25 26 26 27 27 27 27 27 26 24 22 21 21 20 19 19 19 20 21 22
13 12 9 8 7 6 6 6 6 6 8 10 12 14 15 16 17 18 19 20 22 22 23 24 24 25 26 26 26 27 26 26 24 23 22 21 20 19 17 18 18 19 20
12 11 10 8 8 7 7 8 9 10 12 13 15 16 17 18 19 20 21 21 22 22 23 23 23 23 24 24 25 25 26 26 25 24 23 22 20 19 18 15 16 17 19
10 9 8 8 7 8 9 10 11 13 15 16 18 19 20 20 20 21 22 22 22 22 22 22 22 22 22 22 22 23 24 25 25 25 24 23 21 20 18 16 15 15 16
11 11 10 10 9 10 10 11 12 13 15 17 18 19 20 21 21 22 22 21 21 21 20 20 20 20 20 20 19 19 20 22 24 24 23 23 22 21 18 17 16 15 15
14 14 14 13 13 13 13 13 14 14 16 17 18 19 20 21 21 21 21 20 20 20 19 18 18 18 18 18 17 16 15 17 18 21 22 22 21 21 20 19 18 17 17
16 16 16 16 16 16 16 16 16 16 17 17 18 19 19 19 20 20 19 19 19 19 19 18 18 18 17 17 16 15 14 14 14 16 18 19 19 18 18 18 18 18 18
19 19 19 19 19 20 20 20 20 19 19 19 19 18 18 17 17 17 17 18 18 18 18 17 17 17 17 17 17 16 15 14 13 12 12 13 14 14 15 16 16 17 18
19 19 20 21 21 23 23 23 23 22 21 20 18 17 15 14 14 14 15 15 16 16 17 17 17 17 17 17 17 17 16 15 13 12 11 10 10 10 11 12 12 13 15
19 20 21 22 23 25 25 25 25 23 22 20 18 16 13 10 10 10 11 12 12 13 15 16 16 17 17 17 17 16 16 14 13 11 10 8 7 7 8 9 10 12 13
19 20 21 22 24 26 26 26 26 25 24 22 19 16 14 11 10 9 9 9 10 10 11 12 12 13 14 15 15 15 15 14 12 10 9 7 6 7 8 9 10 12 14
19 20 21 22 24 25 26 26 26 26 25 24 21 19 17 15 14 13 12 11 10 8 7 6 6 6 8 10 12 13 13 13 11 10 9 7 7 7 8 9 10 12 15
19 20 20 22 23 25 26 26 26 26 26 26 25 23 21 20 18 17 16 15 14 12 9 8 5 2 3 6 9 10 11 11 10 10 7 5 4 5 7 8 10 12 14
19 20 20 21 22 23 25 25 26 26 26 26 26 26 25 24 23 22 22 21 20 18 15 14 13 12 11 11 12 12 12 11 10 8 5 3 2 3 5 6 8 10 12
18 19 20 20 20 21 23 24 25 25 25 26 26 26 26 26 25 25 24 25 25 25 23 21 20 19 19 17 17 16 14 12 10 8 5 3 2 3 5 7 9 11 13
17 19 19 20 20 20 21 22 23 23 24 24 24 24 25 25 25 25 25 25 26 26 25 24 24 23 22 21 20 18 15 13 11 9 8 7 7 7 8 9 10 12 15
16 18 19 19 19 19 19 19 20 21 21 21 22 22 22 22 23 23 24 24 24 24 24 24 23 23 22 21 19 18 16 14 13 12 11 10 10 10 10 11 13 14 17
14 16 18 19 18 18 18 17 18 18 19 19 19 19 19 20 20 20 21 21 21 21 21 21 21 20 19 18 17 16 15 13 13 12 11 11 10 11 11 13 14 16 18
11 14 16 18 18 17 17 16 16 16 16 17 17 17 17 18 18 18 18 18 18 17 17 17 17 16 16 15 15 14 13 12 11 11 11 10 10 11 12 14 15 17 18
9 11 14 16 17 17 16 16 15 15 15 15 15 15 16 16 16 16 17 17 16 16 15 15 14 14 13 13 12 11 11 10 10 10 10 10 11 11 12 14 15 16 18
8 9 11 14 15 16 16 15 15 14 14 14 14 14 14 14 14 15 15 16 16 16 15 15 15 14 13 13 12 12 11 11 11 11 10 10 11 12 12 13 15 16 18
7 8 9 11 13 14 15 15 14 14 13 13 13 13 13 13 13 13 14 15 15 15 15 15 15 15 15 15 14 14 14 14 13 13 13 12 12 12 13 13 15 16 17
7 7 7 8 10 11 12 13 14 14 13 12 12 12 12 12 13 12 12 13 13 14 14 15 15 15 15 16 16 16 16 16 16 15 15 14 13 13 13 13 14 15 16
Wind_Direction
257 256 256 257 259 260 262 266 268 267 267 267 265 260 253 248 242 239 241 248 258 266 271 273 274 275 275 275 274 273 273 273 275 277 278 276 270 265 264 263 259 255 250
256 255 255 255 257 260 261 261 261 262 261 257 251 244 237 237 243 246 253 259 264 268 270 271 272 272 273 273 271 270 269 269 269 271 274 276 273 269 263 261 260 254 250
244 244 244 246 246 249 251 252 252 249 241 235 244 248 248 252 257 262 266 268 269 270 272 272 270 270 270 270 269 268 267 265 265 266 269 273 273 272 266 260 257 252 248
106 113 121 118 132 213 253 260 267 267 272 273 274 275 274 272 270 268 269 270 270 271 271 271 269 268 267 266 266 266 265 264 262 262 265 269 273 273 268 261 256 252 246
69 67 60 54 47 33 13 356 339 319 304 295 288 284 281 278 275 273 271 270 270 270 270 269 268 267 266 265 264 264 264 263 261 260 262 266 269 269 266 262 257 255 248
55 49 40 29 16 2 346 331 319 308 302 296 292 288 285 281 280 279 277 275 273 271 270 269 267 266 265 265 265 264 262 261 260 258 259 262 265 267 267 269 264 257 254
45 36 26 14 359 343 330 321 315 310 305 300 296 293 291 289 288 285 283 280 277 273 270 269 267 267 267 266 266 265 262 260 258 255 255 256 259 262 265 268 269 268 264
42 36 27 18 8 356 344 333 323 315 309 303 298 294 291 288 287 285 283 280 276 273 271 269 266 265 265 265 266 267 265 260 257 254 252 252 254 258 262 265 269 273 272
43 37 31 23 15 5 355 344 334 324 315 308 303 298 293 289 286 284 281 278 275 271 268 264 261 259 260 262 262 263 263 260 257 255 252 251 252 255 258 261 263 266 268
43 37 31 24 17 9 1 352 344 335 326 317 308 301 295 290 286 282 279 276 273 270 266 261 260 258 256 258 260 260 259 261 261 259 257 254 252 253 257 259 262 265 268
41 36 31 25 18 11 4 358 351 344 337 328 318 308 300 294 290 285 281 278 274 271 267 263 260 258 257 257 256 254 256 258 258 261 262 258 253 252 254 258 263 268 273
36 31 26 21 15 10 5 0 355 351 346 340 333 325 315 306 299 294 288 283 278 274 270 266 261 259 255 253 252 250 249 250 253 255 257 258 255 254 258 262 268 274 278
30 26 22 18 14 12 9 7 5 3 1 358 355 351 344 334 323 314 306 297 288 281 276 270 264 259 255 251 248 244 241 240 241 244 245 246 246 254 266 273 279 285 289
24 21 18 17 17 16 14 15 16 17 17 18 17 16 14 10 3 355 345 332 318 303 293 282 269 258 251 246 240 233 231 230 231 231 230 228 236 254 271 283 290 296 299
21 19 18 18 20 21 21 22 24 27 28 30 31 30 30 30 27 22 15 8 360 348 337 320 289 262 246 233 224 220 221 219 218 215 214 221 237 259 279 293 301 305 308
21 19 19 21 23 26 27 29 31 33 35 37 39 41 42 41 38 35 32 29 26 24 24 27 39 80 150 173 180 186 189 190 193 193 198 211 245 276 295 305 311 315 317
20 20 20 22 26 29 30 32 35 37 40 41 43 44 46 47 47 46 44 43 43 45 52 60 70 82 100 120 135 145 150 153 156 161 170 190 246 299 318 328 335 338 339
21 21 21 23 27 30 33 35 37 39 41 44 46 47 48 49 50 50 51 52 54 57 63 69 75 81 90 101 111 118 123 126 127 127 124 109 74 34 17 8 3 359 356
22 22 22 23 26 30 34 35 37 40 41 43 45 46 48 50 52 54 55 56 57 60 65 70 75 80 85 92 98 102 104 104 103 99 92 80 64 49 36 26 17 10 4
21 22 23 24 25 28 33 35 36 39 41 43 44 46 48 50 53 54 56 57 59 62 65 69 72 76 80 84 87 90 90 88 85 80 73 64 55 46 37 28 19 13 9
17 20 22 23 23 26 30 33 35 37 39 42 44 45 46 48 50 52 54 56 58 61 63 65 68 71 74 76 78 79 78 76 71 66 59 53 45 37 29 22 17 14 11
11 15 17 20 22 23 25 28 31 34 36 38 40 41 43 44 45 47 49 51 53 56 58 61 63 65 67 68 69 68 67 64 60 55 50 44 37 29 23 19 16 14 12
1 6 11 15 19 20 21 24 26 29 31 33 35 36 38 40 42 43 45 47 49 52 55 58 60 61 61 60 59 56 54 51 47 42 38 33 28 23 19 16 14 13 13
347 355 2 8 14 18 19 20 22 24 27 29 31 32 34 36 39 42 44 46 49 51 53 55 58 59 58 57 55 51 47 43 39 36 32 29 26 24 21 17 15 14 13
329 338 348 358 6 12 16 18 20 21 23 25 27 29 29 31 33 37 41 45 48 50 52 55 57 58 58 57 56 54 51 47 44 40 37 35 32 29 25 21 18 16 14
311 318 328 341 352 1 8 13 16 18 19 20 22 24 25 26 28 31 37 42 46 48 50 53 56 57 57 57 56 54 52 50 47 44 41 38 36 33 30 26 22 19 16
Height
5786 5787 5788 5790 5791 5791 5792 5793 5793 5793 5793 5793 5793 5794 5795 5796 5797 5799 5801 5803 5805 5807 5808 5809 5809 5810 5810 5811 5811 5812 5813 5813 5813 5813 5815 5816 5816 5817 5817 5818 5819 5820 5822
5781 5782 5782 5784 5785 5785 5785 5786 5786 5786 5786 5787 5787 5789 5790 5792 5793 5794 5795 5797 5799 5800 5801 5802 5803 5803 5804 5804 5805 5806 5807 5807 5808 5808 5810 5810 5810 5811 5812 5813 5814 5815 5817
5778 5779 5779 5780 5781 5781 5781 5781 5782 5782 5783 5783 5784 5785 5786 5787 5789 5790 5791 5792 5793 5793 5794 5795 5796 5797 5798 5798 5799 5800 5801 5801 5802 5803 5804 5805 5805 5806 5806 5807 5808 5810 5811
5778 5778 5779 5779 5779 5779 5779 5780 5780 5780 5781 5782 5782 5782 5783 5784 5785 5785 5786 5787 5787 5787 5788 5788 5789 5790 5791 5791 5792 5793 5794 5795 5796 5798 5799 5799 5800 5800 5801 5801 5802 5804 5805
5780 5780 5781 5781 5780 5780 5780 5780 5780 5780 5780 5780 5780 5780 5780 5780 5780 5780 5780 5780 5780 5781 5781 5782 5782 5783 5783 5784 5785 5786 5788 5789 5791 5792 5793 5794 5795 5795 5795 5796 5797 5798 5799
5784 5784 5783 5783 5782 5782 5781 5780 5780 5779 5778 5778 5777 5776 5775 5775 5774 5774 5773 5773 5774 5774 5775 5775 5776 5776 5776 5777 5778 5779 5781 5782 5784 5786 5788 5789 5789 5790 5790 5791 5791 5792 5794
5787 5786 5785 5784 5783 5782 5781 5780 5778 5777 5775 5774 5772 5771 5770 5769 5768 5767 5767 5766 5767 5767 5768 5769 5769 5769 5769 5770 5771 5772 5774 5775 5777 5779 5781 5783 5784 5785 5786 5787 5787 5788 5789
5789 5788 5786 5785 5784 5782 5780 5779 5777 5774 5772 5770 5768 5766 5764 5763 5761 5761 5760 5760 5760 5760 5761 5762 5763 5763 5763 5764 5765 5766 5767 5768 5770 5772 5774 5776 5778 5779 5780 5782 5782 5783 5784
5791 5789 5788 5786 5784 5782 5779 5777 5774 5772 5769 5766 5763 5760 5758 5756 5755 5754 5753 5753 5753 5753 5754 5755 5756 5757 5757 5758 5759 5760 5761 5762 5763 5765 5767 5769 5771 5773 5775 5776 5777 5778 5779
5793 5791 5789 5787 5784 5782 5779 5775 5772 5768 5765 5761 5758 5755 5752 5750 5748 5747 5747 5746 5746 5747 5747 5749 5749 5750 5750 5751 5753 5755 5756 5757 5758 5760 5762 5763 5765 5767 5769 5771 5772 5773 5773
5795 5793 5791 5788 5785 5781 5777 5773 5769 5765 5760 5756 5752 5749 5746 5744 5742 5741 5740 5740 5740 5740 5741 5742 5742 5743 5744 5745 5747 5749 5751 5752 5754 5756 5757 5759 5760 5762 5764 5766 5767 5767 5768
5798 5795 5792 5789 5785 5781 5776 5771 5766 5761 5756 5751 5747 5742 5739 5738 5736 5735 5735 5734 5734 5734 5734 5735 5735 5736 5737 5739 5741 5743 5745 5748 5750 5752 5754 5755 5757 5759 5760 5761 5762 5763 5763
5800 5797 5794 5791 5786 5782 5776 5771 5765 5759 5754 5748 5743 5739 5736 5734 5733 5732 5731 5730 5729 5728 5728 5728 5728 5729 5731 5733 5735 5738 5740 5743 5746 5748 5751 5752 5754 5756 5757 5758 5758 5759 5759
5802 5799 5796 5792 5788 5783 5777 5772 5766 5760 5755 5749 5744 5740 5737 5735 5733 5731 5729 5728 5726 5724 5723 5722 5722 5723 5725 5727 5729 5732 5736 5739 5742 5745 5748 5750 5752 5753 5754 5755 5755 5755 5755
5805 5802 5798 5794 5790 5785 5780 5774 5769 5763 5758 5753 5748 5744 5740 5738 5735 5732 5730 5727 5724 5722 5720 5719 5718 5718 5719 5722 5725 5728 5732 5736 5739 5743 5746 5748 5750 5751 5752 5753 5752 5752 5751
5807 5804 5800 5796 5792 5788 5783 5778 5773 5768 5763 5758 5753 5748 5745 5741 5738 5735 5732 5728 5725 5722 5720 5718 5717 5716 5717 5719 5722 5726 5730 5734 5738 5742 5745 5747 5749 5750 5750 5750 5750 5749 5748
5810 5806 5803 5799 5795 5791 5787 5782 5778 5773 5768 5764 5759 5755 5751 5747 5743 5740 5736 5733 5729 5725 5722 5720 5719 5719 5719 5721 5724 5728 5731 5735 5739 5742 5745 5747 5748 5749 5749 5749 5748 5747 5745
5812 5809 5806 5802 5798 5794 5791 5787 5782 5778 5774 5770 5766 5761 5758 5754 5750 5747 5743 5740 5736 5732 5729 5727 5726 5726 5726 5727 5730 5733 5736 5739 5742 5744 5746 5747 5748 5749 5749 5748 5747 5745 5743
5815 5812 5808 5805 5801 5798 5794 5791 5787 5784 5780 5776 5772 5768 5765 5761 5758 5755 5751 5748 5745 5742 5740 5738 5736 5736 5736 5737 5738 5740 5742 5744 5745 5747 5748 5749 5749 5749 5749 5748 5747 5745 5743
5817 5814 5811 5808 5805 5801 5798 5795 5792 5788 5785 5782 5778 5775 5772 5769 5766 5763 5760 5757 5754 5752 5750 5748 5747 5746 5745 5745 5746 5747 5748 5749 5749 5750 5750 5751 5750 5750 5750 5749 5747 5745 5742
5819 5817 5814 5811 5808 5805 5801 5798 5796 5793 5790 5787 5784 5781 5778 5775 5772 5769 5767 5764 5762 5760 5758 5757 5755 5754 5753 5753 5753 5753 5753 5753 5753 5753 5753 5753 5753 5752 5751 5750 5748 5745 5742
5821 5819 5816 5813 5810 5807 5805 5802 5799 5796 5794 5791 5788 5786 5783 5780 5778 5775 5772 5770 5768 5766 5765 5763 5762 5761 5760 5759 5759 5758 5758 5757 5757 5757 5756 5755 5755 5754 5752 5750 5748 5745 5742
5821 5820 5818 5815 5812 5810 5807 5805 5802 5799 5797 5794 5792 5789 5787 5784 5782 5780 5777 5775 5773 5771 5769 5768 5767 5765 5764 5763 5763 5762 5761 5761 5760 5759 5758 5757 5756 5754 5752 5750 5748 5745 5742
5821 5820 5819 5817 5814 5812 5809 5807 5805 5802 5800 5797 5795 5793 5790 5788 5786 5784 5782 5779 5777 5775 5774 5772 5771 5769 5768 5767 5766 5765 5764 5763 5761 5760 5759 5758 5756 5755 5753 5750 5748 5745 5742
5821 5820 5819 5817 5815 5813 5811 5809 5807 5804 5802 5800 5798 5796 5793 5791 5789 5787 5785 5783 5781 5780 5778 5776 5775 5773 5772 5770 5769 5768 5766 5765 5763 5762 5760 5759 5757 5755 5753 5750 5748 5745 5742
5820 5819 5818 5817 5816 5814 5812 5810 5808 5806 5804 5802 5800 5798 5796 5794 5792 5790 5788 5787 5785 5783 5782 5780 5779 5777 5776 5774 5773 5771 5769 5768 5766 5764 5762 5760 5758 5756 5753 5751 5748 5745 5742